GFSMA_prec_radar_174.txt.gz
Reflectivity
-20 -20 -20 -20 -20 -20 -20 -20 -20 -20 -20 -20 -20 -20 -20 -20 -20 -20 -20 -20 -20 -20 -20 -20 -12 -20 -20 -20 -20 -20 -20 -20 -20 -20 -10 16 15 8 3 13 -20 15 33
-20 -20 -20 -20 -20 -20 -20 -20 -20 -20 -20 -20 -20 -20 -20 -20 -20 -20 -20 -20 -20 -20 -20 -20 -20 -20 -20 -20 -20 -20 -20 -1 -20 -20 -20 -19 7 17 9 10 26 -20 27
-20 -20 -20 -20 -20 -20 -20 -20 -20 -20 -20 -20 -20 -20 -20 -20 -20 -20 -20 -20 -20 -20 -20 -20 -20 -20 -20 -20 -20 6 10 17 10 -11 10 8 1 10 18 10 12 26 -19
-20 -20 -20 -20 -20 -20 -20 -20 -20 -20 -20 -20 -20 -20 -20 -20 -20 -20 -20 -20 -20 -20 -20 -20 -20 -20 -20 -20 -20 1 10 18 12 20 13 4 7 10 -1 16 13 11 -9
-20 -20 -20 -20 -20 -20 -20 -20 -20 -20 -20 -20 -20 -20 -20 -20 -20 -20 -20 -20 -20 -20 -20 -20 -20 -20 -6 17 16 15 17 12 11 11 11 11 6 -1 10 -13 22 15 19
-20 -20 -20 -20 -20 -20 -20 -20 -20 -20 -20 -20 -20 -20 -20 -20 -20 -20 -20 -20 -20 -20 -20 -20 -20 -20 6 -1 7 19 20 19 13 14 18 18 14 11 2 4 -20 15 14
-20 -20 -20 -20 -20 -20 -20 -20 -20 -20 -20 -20 -20 -20 -20 -20 -20 -20 -20 -20 -20 -20 -20 -20 -20 -11 -5 9 5 13 17 18 18 17 17 13 15 1 -2 -16 -20 -20 23
-20 -20 -20 -20 -20 -20 -20 -20 -20 -20 -20 -20 -20 -20 -20 -20 -20 -20 -20 -20 -20 -20 -20 -20 -3 -20 -19 -17 6 6 5 8 12 18 16 18 4 19 2 -20 -3 -20 -20
-20 -20 -20 -20 -20 -20 -20 -20 -20 -20 -20 -20 -20 -20 -20 -20 -20 -20 -20 -20 -20 -20 -20 -20 -18 -20 -20 -20 3 3 4 6 7 15 19 18 18 16 12 8 -12 -20 -20
-20 -20 -20 -20 -20 -20 -20 -20 -20 -20 -20 -20 -20 -20 -20 -20 -20 -20 -20 -20 -20 -20 -10 19 5 -3 -20 -3 -0 5 4 5 3 12 17 16 15 12 23 24 6 -20 -14
-20 -20 -20 -20 -20 -20 -20 -20 -20 -20 -20 -20 -20 -20 -20 -20 -20 -20 -20 -20 -20 -20 -19 6 -11 2 -14 -20 3 -2 5 5 2 9 13 15 16 18 15 3 13 17 -20
-20 -20 -20 -20 5 -15 -20 -20 -20 -20 -20 -20 -20 -20 -20 -20 -15 -19 -17 -20 -20 -20 -20 2 6 6 -16 -20 -6 3 17 5 6 8 12 13 15 18 17 16 12 -2 -7
-20 -20 -20 -20 -2 -13 -19 -11 -20 -20 -20 -20 -20 -20 -20 -20 -20 -20 -11 -16 -20 -20 -20 4 -20 0 13 -18 -8 6 9 10 7 7 9 11 16 18 21 19 3 4 -3
-20 -20 -20 -8 -4 4 -19 -20 -20 -20 -20 -20 -20 -20 -20 -20 -20 -11 1 -0 -20 -20 -20 -4 -19 -20 6 5 16 -7 -7 13 6 11 16 14 20 21 30 19 13 14 -16
-20 -20 -20 -19 1 4 -14 -19 -20 -20 -20 -20 -20 -20 -20 -20 -20 -20 -20 -2 5 -8 -12 1 -19 -18 -20 2 0 7 -20 -3 6 13 21 23 17 25 26 20 20 16 17
-11 -8 -19 8 17 -11 -20 -20 -20 -20 -20 -20 -20 -20 -20 -20 -20 -20 -20 -20 -0 -8 -12 1 -1 -13 -19 -20 -18 -20 -20 -20 -8 -2 20 30 22 23 23 25 22 19 21
10 -9 -17 17 5 -20 -20 -20 -20 -20 -20 -20 -20 -20 -20 -20 -20 -20 -20 -20 -20 2 -18 4 -14 -20 -12 -20 -20 -20 -20 -20 -20 -20 -0 17 7 12 27 16 26 25 38
-20 -20 15 24 -20 -20 -20 -20 -20 -20 -20 -20 -20 -20 -20 -20 -20 -20 -20 -20 -20 -13 2 -20 -20 3 -11 -16 -19 -20 -20 -20 -20 -20 -20 -7 1 3 4 23 33 21 21
11 12 27 -8 -20 -20 -20 -20 -20 -20 -20 -20 -20 -20 -20 -20 -20 -20 -20 -20 -20 -20 -20 -20 -20 -20 -20 -20 -20 -20 -20 -20 -20 -20 -20 -20 -19 -15 -4 9 5 4 8
19 25 11 -19 -3 -9 -20 -20 -20 -20 -20 -20 -20 -20 -20 -20 -20 -20 -20 -20 -20 -20 -20 -20 -20 -20 -20 -20 -20 -20 -20 -20 -20 -20 -20 -20 -20 -17 -20 -13 9 6 9
20 25 -10 -11 -10 -20 -20 -20 -20 -20 -20 -20 -20 -20 -20 -20 -20 -20 -20 -20 -20 -20 -20 -20 -20 -20 -20 -20 -20 -20 -20 -19 -20 -20 -20 -20 -20 -20 -20 -20 -6 15 7
15 10 -1 -16 -17 -20 -20 -20 -20 -20 -20 -20 -20 -20 -20 -20 -20 -20 -20 -20 -20 -20 -20 -20 -20 -20 -20 -20 -20 -20 -20 -20 -20 -20 -20 -20 -20 -20 -20 -6 0 -4 12
21 19 -15 -1 -20 -20 -20 -20 -20 -20 -20 -20 -20 -20 -20 -20 -20 -20 -20 -20 -20 -20 -20 -20 -20 -20 -20 -20 -20 -20 -20 -20 -20 -20 -20 -20 -20 -20 -20 -18 6 12 -13
24 13 -1 -16 -20 -20 -20 -20 -20 -20 -20 -20 -20 -20 -20 -20 -20 -20 -20 -20 -20 -20 -20 -20 -20 -20 -20 -20 -20 -20 -20 -20 -20 -20 -20 -2 -20 -20 -20 -20 2 -17 -13
5 2 -20 -20 -20 -20 -20 -20 -20 -20 -20 -20 -20 -20 -20 -20 -20 -20 -20 -20 -20 -20 -19 -20 -20 -20 -20 -20 -20 -20 -20 -9 -20 -20 -20 -20 -20 -20 -20 -20 -20 -20 -20
5 -19 -20 -20 -20 -20 -20 -20 -20 -20 -20 -20 -20 -20 -20 -20 -20 -20 -20 -20 -20 -20 -20 -20 -20 -20 -20 -20 -20 -20 -20 -20 -20 -20 -20 -20 -20 -20 -20 -20 -20 -20 -20

GFSMA_prec_radar_180.txt.gz
Reflectivity
-20 -20 -20 -20 -20 -20 -20 -20 -20 -20 -20 -20 -20 -20 -20 -20 -20 -20 -20 -20 -20 -20 -20 -9 -5 -8 -4 -2 6 9 12 12 16 13 -1 -13 -6 7 13 -15 -7 -2 -7
-20 -20 -20 -20 -20 -20 -20 -20 -20 -20 -20 -20 -20 -20 -20 -20 -20 -20 -20 -20 -20 -20 -20 -20 -20 -20 -5 13 13 17 16 17 16 17 17 14 10 -14 -20 -20 -19 -20 -20
-20 -20 -20 -20 -20 -20 -20 -20 -20 -20 -20 -20 -20 -20 -20 -20 -20 -20 -20 -20 -20 -20 -20 -20 -20 -20 -20 -20 -14 1 3 17 14 17 17 16 15 14 12 12 4 -20 -20
-20 -20 -20 -20 -20 -20 -20 -20 -20 -20 -20 -20 -20 -20 -20 -20 -20 -20 -20 -20 -20 -20 -20 -17 -20 -17 -1 5 6 18 16 9 14 17 20 18 16 13 13 12 12 12 12
-20 -20 -20 -20 -20 -20 -20 -20 -20 -20 -20 -20 -20 -20 -20 -20 -20 -20 -20 -20 -20 -20 -20 -20 -20 -12 7 14 13 8 12 9 13 15 19 15 12 5 7 6 10 15 9
-20 -14 -3 -20 -20 -20 -20 -20 -20 -20 -20 -20 -20 -20 -20 -20 -20 -20 -20 -20 -20 -20 -20 -20 -20 -20 -20 1 -1 8 8 10 12 11 14 10 12 10 7 3 7 -1 15
-20 0 -13 -20 -20 -20 -20 -20 -20 -20 -20 -20 -20 -20 -20 -20 -20 -20 -20 -20 -20 -20 -20 -20 -20 -20 -20 -20 -17 7 14 10 12 15 12 10 17 14 11 9 9 12 9
-12 8 4 -18 -20 -6 -18 -20 -20 -20 -20 -20 -20 -20 -20 -20 -20 -20 -20 -20 -20 -20 -20 -20 -20 -20 -20 -20 -16 7 14 7 12 10 9 8 13 10 12 17 18 18 17
9 18 -10 -18 -12 -16 -13 -20 -20 -16 -20 -20 -20 -20 -17 -20 -20 -20 -20 -20 -20 -20 -20 -20 -20 -20 -20 -20 4 5 6 12 9 14 15 12 11 14 15 15 19 18 14
-7 15 12 -18 5 -20 -5 -17 -20 -20 -20 -20 -20 -20 -20 -20 -20 -20 -20 -20 -20 -20 -20 -20 -20 -20 -20 -20 13 11 12 14 15 17 16 10 12 15 17 17 15 12 -1
-20 -20 -14 2 15 3 3 -18 -20 -20 -20 -20 -13 -10 -20 -20 -20 -20 -20 -20 -20 -20 -20 -20 -20 -12 -20 -20 -13 -8 9 6 12 15 13 9 12 13 16 15 14 10 13
-20 -20 -20 -20 3 -19 -7 -20 -17 -20 -20 -16 -16 -20 -20 -20 -20 -20 -20 -20 -20 -20 -20 -20 -20 -20 -13 -18 1 -10 -20 -0 -9 4 11 9 14 13 14 17 16 16 14
-20 -20 -16 -13 17 -18 -16 -20 -20 -20 -14 4 -20 -20 -20 -20 -20 -20 -20 -20 -20 -20 -13 -20 -20 -20 -20 -3 -15 -9 -20 -20 -20 -6 10 11 13 11 12 16 24 19 25
17 -3 -16 10 -2 1 14 -13 -20 -10 11 -8 -20 -20 -20 -20 -20 -20 -20 -20 -20 -20 -20 -18 -20 -20 -20 -20 -5 -20 -20 -20 -20 -4 10 14 14 8 10 13 23 19 12
23 3 -20 -20 -8 10 -16 -19 8 16 14 -20 -20 -20 -20 -20 -20 -20 -20 -20 -20 -20 -20 -16 -20 -20 -20 -20 -17 -20 -20 -20 -20 -10 7 9 9 11 9 13 16 13 15
21 14 6 -8 2 -15 -11 13 15 9 4 -14 -20 -20 -20 -20 -20 -20 -20 -20 -20 -20 -20 -3 -14 -20 -20 -20 -16 -20 -20 -20 -20 -14 7 11 9 11 7 11 12 14 13
28 14 17 2 10 26 13 -3 14 24 -16 -20 -20 -20 -20 -20 -20 -20 -20 -20 -20 -20 -20 -15 -20 -20 -20 -20 -20 -20 -20 -20 -20 -20 -2 7 9 7 12 7 7 12 13
21 17 12 -16 12 -10 10 14 6 -4 -20 -20 -20 -20 -20 -20 -20 -20 -20 -20 -20 -20 -16 -20 -20 -20 -20 -20 -20 -20 -20 -20 -20 -20 -4 -2 9 10 5 11 6 6 15
12 2 -10 -15 -9 -4 -15 -19 -19 -20 -20 -20 -20 -20 -20 -20 -20 -20 -20 -20 -20 -20 -20 -20 -20 -20 -20 -20 -20 -20 -20 -20 -20 -20 -20 -20 -5 3 8 12 7 2 4
6 -1 -4 -17 -20 -3 4 -19 -20 -20 -20 -20 -20 -20 -20 -20 -20 -20 -20 -20 -20 -20 -20 -20 -20 -20 -20 -20 -20 -20 -20 -20 -20 -20 -20 -20 -20 -20 2 12 6 7 6
8 -11 -19 -20 -20 -20 -20 -20 -20 -20 -20 -20 -20 -20 -20 -20 -20 -20 -20 -20 -20 -20 -20 -20 -20 -20 -20 -20 -20 -20 -20 -20 -20 -20 -20 -20 -20 -20 -20 -11 8 -2 1
-14 -20 -7 -11 -17 -6 -19 -8 -19 -20 -20 -20 -20 -20 -20 -20 -20 -20 -20 -20 -20 -20 -20 -20 -20 -20 -20 -20 -20 -20 -20 -20 -20 -20 -20 -20 -20 -20 -20 -14 13 -3 0
-20 -3 1 31 -13 12 15 -10 -20 -20 -20 -20 -20 -20 -20 -20 -20 -20 -20 -20 -20 -20 -20 -20 -20 -20 -20 -20 -20 -20 -20 -20 -20 -20 -20 -20 -20 -20 -20 -20 7 11 2
-20 -10 0 29 20 12 16 -16 -20 -20 -20 -20 -20 -20 -20 -20 -20 -20 -20 -20 -20 -20 -20 -20 -20 -20 -20 -20 -20 -20 -20 -20 -20 -20 -20 -20 -20 -20 -20 -20 0 2 7
-20 9 13 13 20 20 9 -0 -12 -20 -20 -20 -20 -20 -20 -20 -20 -20 -20 -20 -20 -20 -20 -18 -20 -20 -20 -20 -20 -20 -20 -20 -20 -20 -20 -20 -20 -20 -20 -20 -20 -18 -6
-3 24 15 13 20 12 -19 -20 -11 -20 -20 -20 -20 -20 -20 -20 -20 -20 -20 -20 -20 -20 -20 -20 -20 -20 -20 -20 -20 -20 -20 -20 -20 -20 -20 -20 -20 -20 -20 -20 -20 -20 -20

GFSMA_prec_radar_186.txt.gz
Reflectivity
-20 -20 -20 -20 -20 -20 -20 -20 -20 -20 -20 -20 -20 -20 -20 -20 -20 -20 -20 -20 -9 -11 -13 8 -19 12 7 5 -1 -10 -20 -20 -19 -12 -2 2 1 -11 -20 -20 -20 -20 -20
-20 -20 -20 -20 -20 -20 -20 -20 -20 -20 -20 -20 -20 -20 -20 -20 -20 -20 -20 -20 -20 -20 -20 -18 14 13 15 10 12 9 9 7 8 12 9 4 -20 -20 -20 -20 -20 -20 -20
-20 -20 -20 -20 -20 -20 -20 -20 -20 -20 -20 -20 -20 -20 -20 -20 -20 -20 -20 -20 -20 -20 -19 10 13 13 13 13 15 14 14 8 13 11 3 13 15 10 12 7 -20 -5 -20
-20 -20 -20 -20 -20 -20 -20 -20 -20 -20 -20 -20 -20 -20 -20 -20 -20 -20 -20 -20 -20 -20 0 7 10 7 8 12 10 9 9 15 15 16 3 3 2 -5 -17 1 -7 -17 -5
-20 -20 -20 -20 -20 -20 -20 -20 -20 -20 -20 -20 -20 -20 -20 -20 -20 -20 -20 -20 -20 -20 -20 -20 -20 -11 9 7 10 13 16 16 17 9 5 12 2 4 -1 4 4 3 -7
-20 -20 -20 -9 -20 -20 -20 -20 -20 -20 -20 -20 -20 -20 -20 -20 -20 -20 -20 -20 -20 -20 -20 -20 -20 -20 -20 10 12 13 13 16 10 6 6 12 15 12 2 7 1 1 -1
-20 -20 -20 -20 -20 -20 -20 -20 -20 -20 -20 -20 -20 -20 -20 -20 -20 -20 -20 -20 -20 -20 -20 -20 -20 -20 -20 -20 -20 8 -4 10 14 8 11 11 0 2 1 3 6 11 10
3 -20 -20 -20 -20 -20 -20 -20 -20 -20 -20 -20 -20 -20 -20 -20 -20 -20 -20 -20 -20 -20 -20 -20 -20 -20 -20 -20 -20 -12 -3 -9 4 8 6 5 10 16 19 18 10 7 15
9 -20 -20 18 -4 -20 -20 -20 -20 -12 9 -10 -20 -20 -20 -20 -20 -20 -20 -20 -20 -20 -20 -20 -20 -20 -20 -20 -20 -20 -8 -20 -11 1 3 15 18 10 8 9 15 14 14
7 1 -19 -11 -12 -20 -20 -20 -19 -18 32 -10 4 -20 -20 -20 -20 -20 -20 -20 -20 -20 -20 -20 -20 -20 -20 -20 -20 -20 -20 -20 -20 -1 12 13 14 14 12 8 9 12 15
20 21 -20 0 12 -7 -20 -20 -20 3 25 20 6 3 -20 -20 -20 -20 -20 -20 -20 -20 -19 -3 -20 -20 -20 -20 -20 -20 -20 -20 -18 1 5 15 12 11 7 11 13 13 13
0 20 -20 -20 -15 12 -2 -18 -2 -16 11 27 18 -12 -20 -20 -20 -20 -20 -20 -20 -18 -20 -20 -20 -20 -20 -20 -20 -20 -20 -20 -20 -18 9 5 11 8 8 9 11 14 14
18 20 -20 -20 1 19 17 3 -16 -7 32 22 -13 -2 -20 -20 -20 -20 -20 -20 -20 -20 -12 -11 -20 -20 -20 -13 -20 -20 -20 -20 -20 -17 8 -11 0 -3 7 10 12 13 13
17 24 15 20 18 7 22 10 -2 23 36 16 -4 6 -20 -20 3 -20 10 -20 -20 -20 -20 -3 -20 -20 -20 -19 -20 -20 -20 -20 -20 -12 -8 -3 3 -11 -2 8 8 12 12
18 14 -14 20 39 10 2 9 4 27 28 17 5 -6 -20 7 -7 9 8 -20 -20 -20 -20 -20 -9 -20 -20 -20 -20 -20 -20 -20 -20 -20 -20 -5 4 -10 -3 -20 -5 5 9
12 27 -3 28 17 17 32 11 14 15 12 15 24 1 -13 9 3 1 -20 -20 -20 -20 -20 -20 -20 -20 -20 -20 -20 -20 -20 -20 -20 -20 -20 7 9 -4 -12 -20 -20 -20 6
25 26 32 27 36 25 20 17 22 30 33 27 12 2 14 16 12 -17 -20 -20 -20 -20 -20 -19 -20 -18 -20 -20 -20 -20 -20 -20 -20 -20 -20 -7 -3 -7 -20 -20 -20 -20 -12
22 23 30 7 27 29 34 37 26 22 30 24 20 17 9 -3 -14 -20 -20 -20 -20 -20 -20 -20 -20 -20 -20 -20 -11 -20 -20 -20 -20 -20 -20 -20 -18 -2 -20 -20 -20 -20 -20
24 22 21 27 36 22 41 33 32 28 27 36 22 -16 -10 -9 -20 -20 -14 -20 -20 -20 -20 -20 -20 -20 -20 -20 -20 -20 -20 -20 -20 -20 -20 -20 -20 -20 -1 -20 -20 -20 -20
21 26 21 25 15 35 32 34 19 28 30 25 6 -18 -12 -10 -13 -7 -20 -20 -20 -20 -20 -20 -20 -20 -20 -20 -20 -20 -20 -20 -20 -20 -20 -20 -20 -20 -15 -6 -20 -20 -20
19 21 18 25 28 4 30 21 13 10 10 -10 -9 0 -3 -4 -20 -20 -20 -20 -20 -20 -20 -20 -20 -20 -20 -20 -20 -20 -20 -20 -20 -20 -20 -20 -20 -20 -20 -13 -2 -20 -20
20 31 23 8 19 17 11 5 6 -0 3 7 7 6 -11 -20 -20 -20 -20 -20 -20 -20 -20 -20 -20 -20 -20 -20 -20 -20 -20 -20 -20 -20 -11 -20 -20 -20 -20 -19 3 -11 -20
23 28 20 14 23 20 15 13 10 10 12 8 -4 -10 -20 -20 -20 -20 -20 -20 -20 -20 -20 -20 -20 -20 -20 -20 -20 -20 -20 -20 -20 -20 -20 -20 -20 -20 -20 -20 -11 -16 -20
25 31 31 36 32 24 15 -1 -12 4 -9 -9 -20 -20 -20 -20 -20 -20 -20 -20 -20 -20 -20 -20 -20 -20 -20 -20 -20 -20 -20 -20 -20 -20 -20 -19 -12 -3 -19 -20 -20 -15 -20
29 34 36 28 25 -1 -4 5 1 -17 2 2 0 -5 -20 -20 -20 -20 -20 -20 -20 -20 -20 -20 -20 -20 -20 -20 -20 -20 -20 -20 -20 -19 -20 -3 -1 1 3 3 -7 -20 -20
31 26 13 10 10 2 -2 -14 -20 -20 -20 -20 -20 -20 -20 -20 -20 -20 -20 -20 -20 -20 -20 -20 -20 -20 -20 -20 -20 -20 -20 -20 -20 -2 -4 3 -2 -2 11 -1 -0 1 2

GFSMA_prec_radar_192.txt.gz
Reflectivity
-20 -20 -20 -20 -20 -20 -20 -20 -20 -20 -20 -20 -20 -20 -20 -20 -20 -20 -20 10 14 15 18 20 19 20 18 15 13 14 15 15 -4 15 10 -20 -20 -20 -20 -19 -11 -20 -20
-16 -20 -20 -20 -20 -20 -20 -20 -20 -20 -20 -20 -20 -20 -20 -20 -20 -20 -20 -13 10 11 9 11 17 18 19 17 17 16 2 7 -20 -5 10 7 -3 -3 -11 3 5 11 12
8 -20 -20 -8 -20 -20 -20 -20 -20 -20 -20 -20 -20 -20 -20 -20 -20 -20 -20 -20 -2 14 9 11 18 17 18 9 16 15 3 10 -10 -6 10 14 10 11 14 16 16 12 16
-13 -20 -20 -20 -7 -20 -20 -20 -20 -20 -20 -20 -20 -20 -20 -20 -20 -20 -20 -20 -20 -20 7 13 17 17 18 18 18 18 9 -0 -1 -10 1 15 11 -4 15 15 11 7 -0
16 -10 -20 -20 -20 -20 -20 -20 -20 -20 -20 -20 -20 -20 -20 -20 -20 -20 -20 -20 -20 -20 -20 -4 3 7 13 15 16 17 18 18 18 17 16 16 2 14 8 16 6 2 8
-20 8 14 -17 -18 -20 -20 -20 -20 -20 -20 -17 -20 -20 -20 -20 -20 -20 -20 -20 -19 -20 -20 -20 -20 -20 -20 1 11 17 18 19 18 13 18 17 11 17 17 15 15 12 14
-18 8 5 13 21 -20 -20 -20 -20 -20 -20 -20 -20 -20 -20 -20 -20 -20 -20 -20 -20 -20 -20 -20 -20 -20 -20 -7 7 13 14 10 16 18 18 16 14 8 6 2 3 2 5
15 -7 16 12 17 -15 4 -20 -20 -20 -20 -20 -8 -20 -20 -20 -20 -20 -20 -20 -20 -20 -20 -20 -20 -20 -20 -20 -20 -20 10 16 16 18 18 18 15 2 8 15 16 9 7
5 21 17 23 16 27 14 1 -18 -20 -20 -20 -20 10 -20 -20 -20 -20 -20 -20 -20 -20 -6 -20 -20 -20 -20 -20 -20 -20 -7 13 15 18 18 17 12 4 10 17 18 17 17
5 19 10 17 17 20 19 18 -20 -20 -20 -18 11 -8 -20 -20 -0 3 -11 -20 -20 -17 12 -20 -20 -20 -20 -20 -20 -20 -20 7 13 9 -7 -19 -20 -20 -20 2 16 14 5
-15 22 11 22 20 13 21 13 19 -20 -20 10 8 10 -19 -20 -20 6 -14 -20 -20 -8 31 3 -1 -20 -20 -20 -20 -20 -20 -20 -20 -10 -20 -20 -20 -20 -20 -20 -20 -2 3
2 13 18 21 22 19 16 19 14 3 -20 3 -19 6 -8 9 -14 -20 -20 -7 -9 5 9 19 -15 -20 -20 -20 -20 -20 -20 -20 -20 -20 -20 -20 -20 -20 -20 -20 -20 -20 -20
-15 0 25 12 28 16 12 16 27 24 -6 5 -20 0 5 -9 1 -20 -20 -20 -20 2 30 19 -5 -20 -20 -20 -20 -20 -20 -20 -20 -20 -20 -20 -20 -20 -20 -20 -20 -7 -7
17 -20 -3 19 7 25 21 5 26 23 13 -12 -20 15 1 24 -13 -20 -20 -5 -8 27 29 15 -10 -9 -18 -20 -20 -20 -20 -20 -20 -20 -20 -1 -20 -20 -20 -20 -12 -20 -20
13 18 20 19 12 11 19 27 18 30 20 -9 -2 -19 10 17 0 18 20 -4 16 34 15 16 14 9 5 -20 -20 -20 -20 -20 -20 -20 -20 -20 -20 -20 -20 -20 -20 -20 -20
18 9 24 26 23 16 17 18 31 13 28 11 -8 -8 -0 33 33 17 35 12 8 1 21 13 14 11 6 -13 -20 -20 -20 -20 -20 -20 -20 -20 -20 -20 -20 -20 -20 -20 -20
10 26 31 21 27 16 16 27 23 28 23 15 9 -6 30 19 17 29 27 24 -5 -0 4 19 26 12 -4 -9 -20 -20 -20 -20 -20 -20 -20 -20 -20 -20 -20 -20 -16 -20 -20
32 31 27 31 20 17 24 25 26 25 28 18 23 15 25 12 39 24 29 18 17 23 15 30 30 -1 -4 -6 -0 -12 -20 -20 -20 -20 -20 -20 -20 -20 -20 -20 -20 -20 -20
36 43 38 31 9 21 10 29 27 28 27 20 20 18 23 42 25 33 24 20 16 31 29 28 12 12 10 7 1 -20 -20 -20 -20 -20 -20 -20 -20 -20 -20 -20 -20 -20 -20
37 44 43 37 24 28 24 26 32 26 25 25 37 25 37 32 34 27 10 -10 28 21 20 -7 10 6 7 5 -20 -20 -20 -20 -20 -20 -20 -20 -20 -20 -20 -20 -20 -20 -20
26 29 37 37 35 23 20 20 22 39 31 21 31 39 41 32 27 3 -20 5 21 2 6 22 10 11 3 -20 -20 -20 -20 -20 -20 -20 -20 -20 -20 -20 -20 -20 -20 -20 -20
33 25 19 24 18 23 28 25 22 20 22 35 39 40 33 26 -15 2 -4 11 -17 1 12 13 10 1 -20 -20 -20 -20 -20 -20 -20 -20 -20 -20 -20 -20 -20 -20 -20 -20 -20
38 34 34 26 23 28 29 28 29 24 33 38 39 35 27 3 22 12 -7 15 2 -6 -20 -2 -7 -20 -20 -20 -20 -20 -20 -20 -20 -20 -20 -20 -20 -20 -20 -20 -20 -20 -20
30 30 25 20 27 32 31 30 30 34 37 36 38 18 -9 25 8 14 5 -19 -10 0 -4 -20 -20 -20 -20 -20 -20 -20 -20 -20 -20 -20 -20 -20 -20 -20 -20 -20 -20 -20 -20
32 33 31 31 33 36 37 33 33 34 36 27 24 32 26 7 10 5 -2 7 3 -18 -20 -20 -20 -20 -20 -20 -20 -20 -20 -20 -20 -20 -20 -20 -20 -20 -20 -20 -20 -20 -20
31 33 31 37 33 27 36 37 38 29 22 24 28 18 23 18 6 8 -15 -20 -20 -20 -20 -20 -20 -20 -20 -20 -20 -20 -20 -20 -20 -20 -20 -20 -20 -20 -20 -20 -20 -20 -20

GFSMA_prec_radar_195.txt.gz
Reflectivity
-5 -20 -20 -20 -20 -20 -20 -20 -20 -20 -20 -20 -20 -20 -20 -20 -20 -20 -20 9 3 3 6 13 18 17 9 14 18 17 -15 -15 16 -8 -19 -20 -20 -20 -20 -9 7 11 12
7 -20 -20 -20 -20 -20 -20 -20 -20 -20 -20 -20 -20 -20 -20 -20 -20 -20 -20 -9 16 18 18 13 10 19 13 17 17 18 -1 -4 -3 17 15 14 -9 -0 10 12 14 14 13
-20 -15 -20 -20 -20 -20 -20 -20 -20 -20 -20 -20 -20 -20 -20 -20 -20 -20 -20 -20 -0 14 14 11 13 17 19 19 18 17 16 16 16 17 16 13 5 9 14 16 16 17 15
-20 -20 -16 -19 -14 7 -20 -20 -20 -20 -20 -20 -20 -20 -20 -20 -20 -20 -20 -20 -20 -20 6 13 11 11 11 16 15 18 17 17 15 14 16 16 17 15 16 11 14 6 2
18 13 6 -4 -1 3 15 -20 -5 -17 -20 -20 -20 -20 -20 -20 -20 -20 -20 -20 -20 -20 -20 8 8 9 11 14 18 19 19 18 17 17 15 17 16 15 14 16 12 13 13
11 -15 1 6 18 -17 13 -8 -6 20 -20 -20 -20 -20 -20 -20 -20 -20 -20 -20 -20 -20 -20 -20 -16 -7 12 15 14 17 17 18 18 18 17 16 13 16 18 14 12 9 5
14 14 -7 -20 7 11 -10 3 4 5 -4 -20 -20 -20 -20 -20 -20 -20 -20 -20 -20 -20 -20 -20 -20 -20 -9 10 14 15 17 11 3 17 16 1 10 12 16 16 18 17 16
18 15 18 26 10 4 -15 5 0 13 -18 -20 4 -20 -19 -20 -20 -20 -20 -20 -20 -20 -16 -20 -20 -20 -20 -20 -17 12 16 17 17 8 14 6 -15 -1 14 16 16 15 15
22 24 27 6 15 25 3 -11 -1 18 -0 -20 -20 -18 -19 -20 -3 -19 -20 -14 -20 -20 -20 -20 -20 2 -11 -15 -20 -3 10 14 16 17 14 -7 -20 -20 -20 -6 -2 -8 -5
21 13 28 25 -15 24 10 17 -0 14 21 -13 -20 -20 -20 -20 -20 -16 23 -12 -18 -20 -18 -8 -20 -17 6 9 -3 -20 -17 0 8 -15 -20 -20 -20 -20 -20 -20 -20 -20 -20
26 25 24 24 23 26 -8 16 25 20 -7 14 -19 -20 -20 -20 -20 -3 7 -4 6 -20 -20 3 4 -20 -6 9 24 -12 -20 -20 -20 -20 -20 -20 -20 -20 -20 -20 -20 -20 -20
12 4 22 25 29 13 30 -1 29 14 26 22 15 -2 -20 -3 -20 -17 -13 -13 -6 10 14 -11 -20 -20 -19 13 -0 7 -20 -20 -20 -20 -20 -20 -18 -0 -20 -20 -20 -20 -20
-20 -20 -10 6 27 26 31 31 11 12 32 11 18 18 8 2 -20 -20 -20 -20 -8 17 21 -13 -20 -17 11 20 24 -0 -16 -20 -20 -20 -19 -20 -15 -20 -20 -20 -20 -20 -20
-20 -20 2 -6 6 -2 22 36 23 8 24 30 7 6 17 8 -8 6 -16 -20 13 18 11 -5 -20 -4 -4 32 16 3 -14 -20 -20 -20 -20 -20 -20 -20 -20 -20 -20 -20 -20
-20 -20 4 9 11 9 6 27 26 28 -1 19 26 14 25 14 2 -3 11 -7 -8 20 32 18 12 12 22 6 10 19 16 -20 -20 -20 -20 -20 -20 -20 -20 -20 -20 -20 -20
-20 -20 -4 6 10 8 6 20 32 16 37 18 22 26 19 22 5 0 6 -19 14 13 31 24 34 29 18 0 13 17 15 -20 -20 -20 -20 -20 -20 -20 -20 -13 -20 -20 -20
-20 -20 -20 -20 -17 8 4 14 31 42 35 -0 16 17 31 22 13 5 12 10 -18 19 28 28 28 22 9 18 21 18 8 -8 -20 -20 -20 -20 -20 -20 -20 -20 -20 -20 -20
-20 -20 -20 -20 -20 9 29 29 26 46 18 12 7 17 20 32 15 26 10 18 -2 17 28 33 22 22 21 19 28 20 15 8 -20 -20 -20 -20 -20 -20 -20 -20 -20 -20 -20
-20 -11 -19 -14 10 31 32 22 33 43 33 20 24 26 19 28 25 9 7 6 25 27 36 34 9 2 27 20 15 8 3 1 1 -4 -20 -20 -20 -20 -20 -20 -20 -20 -20
-16 -15 -9 5 29 33 27 39 33 38 41 27 33 28 29 20 26 32 21 17 34 32 29 18 -15 9 -1 -19 -2 8 14 5 -7 -17 -20 -20 -20 -20 -20 -20 -20 -20 -20
-20 -1 -5 20 26 32 35 32 39 41 37 24 35 26 27 31 30 21 25 38 36 26 26 4 -2 -1 -9 -0 1 16 3 -5 -20 -20 -20 -20 -20 -20 -20 -20 -20 -20 -20
28 -14 10 27 37 30 33 30 38 34 40 31 24 41 32 35 31 39 36 38 35 23 15 8 16 13 5 10 8 0 4 -1 -20 -20 -20 -20 -20 -20 -20 -20 -20 -20 -20
26 1 14 12 27 27 32 35 30 32 29 24 27 32 34 36 38 35 37 37 25 14 2 17 10 -16 -5 -4 -10 -17 -20 -20 -20 -20 -20 -20 -20 -20 -20 -20 -20 -20 -20
21 10 9 22 31 31 40 36 40 34 31 29 26 13 31 35 35 36 33 24 11 11 -5 -18 -4 -15 -7 -20 -20 -20 -20 -20 -20 -20 -20 -20 -20 -20 -20 -20 -20 -20 -20
-0 16 23 26 35 33 34 33 31 33 34 33 32 26 13 28 34 34 19 5 18 2 7 -8 -15 -20 -20 -20 -20 -20 -20 -20 -20 -20 -20 -20 -20 -20 -20 -20 -20 -20 -20
-8 18 14 24 26 27 31 31 31 33 20 25 25 30 32 33 36 26 26 29 16 11 9 -8 -20 -20 -20 -20 -20 -20 -20 -20 -20 -20 -20 -20 -20 -20 -20 -20 -20 -20 -20

GFSMA_prec_radar_198.txt.gz
Reflectivity
-20 -20 -20 -20 -12 -20 -20 -20 -20 -20 -20 -20 -20 -20 -20 -20 -20 -20 -20 -20 -20 15 -7 -8 -9 16 17 10 15 -4 17 4 -20 2 10 -20 -10 -3 13 1 14 16 17
-20 -20 -20 -20 -17 -20 -20 -20 -20 -20 -20 -20 -20 -20 -20 -20 -20 -20 -20 -20 -20 3 17 17 18 19 18 13 16 -20 9 14 13 17 11 13 15 17 16 17 17 15 11
-20 -20 -20 -20 -20 -20 -20 -20 -20 -20 -20 -20 -20 -20 -20 -20 -20 -20 -20 -20 -19 7 12 14 0 16 17 19 15 15 10 16 16 17 16 16 16 13 17 16 14 15 9
5 11 -14 -20 -20 -20 -20 -20 -20 -20 -20 -20 -20 -20 -20 -20 -20 -20 -20 -20 -20 -20 6 14 12 17 15 11 18 18 16 16 19 17 16 17 17 12 12 16 8 -16 16
12 11 12 7 -7 -10 -20 -20 -20 -20 -20 -20 -20 -20 -20 -20 -20 -20 -20 -20 -20 -20 -20 -4 13 13 13 16 15 17 18 17 18 15 12 14 12 -4 11 15 5 -20 -20
2 20 10 -17 24 20 13 5 -20 -20 -8 -20 -20 -20 -20 -20 -20 -20 -20 -20 -20 -20 -20 -20 -16 -7 8 -4 9 10 13 17 18 17 16 13 15 17 17 16 14 12 14
11 -20 9 -3 22 -3 16 7 -19 -18 -20 2 -1 -20 -20 -20 -20 -20 -20 -20 -20 -20 -20 -20 -20 -20 -4 6 8 11 14 17 17 17 17 16 16 17 16 16 15 16 18
9 18 29 24 -16 -20 -0 20 5 19 -3 -19 -11 -8 5 -20 -20 -20 -20 -20 -20 -20 -20 -14 -17 -20 -20 -20 -11 12 12 16 13 18 18 18 17 12 -6 -1 -13 -13 -10
20 21 22 35 9 26 22 -12 5 2 18 -4 -15 -16 -6 -17 -20 -20 -20 -20 -20 -20 -20 -15 5 -20 -20 -20 -6 -2 12 10 13 13 16 -9 -20 -20 -20 -20 -20 -20 -20
-20 -20 -11 21 23 18 16 -12 25 -7 18 -9 25 0 -5 -11 -20 -20 -20 -20 -20 -20 -20 -20 19 28 -14 -5 -18 13 9 3 6 -15 -20 -20 -20 -20 -20 -20 -20 -20 -20
-20 -16 -2 3 11 21 23 24 33 13 38 11 19 20 10 2 11 -20 -20 -20 -20 -20 -20 -20 -20 8 30 -20 -20 12 12 8 1 3 -20 -20 -20 -20 -20 -20 -20 -20 -20
-20 -20 -20 -20 -20 -3 14 19 26 39 27 27 33 16 20 24 -3 -18 -20 -20 -20 -20 -20 -10 -20 -20 20 5 -3 -20 -20 -20 -19 1 -10 -20 -20 -20 -20 -20 -20 -17 -14
-20 -20 -20 -20 -20 -15 13 14 16 14 28 42 35 35 20 39 14 -4 11 -18 -18 1 6 11 -4 3 27 31 23 -3 -20 8 20 8 -14 -20 -20 -20 -20 -20 -20 -12 -0
-20 -20 -20 -20 -20 -1 9 13 14 14 25 18 16 37 37 22 31 21 12 22 -12 -5 -1 -11 -20 -19 2 22 7 -5 4 -0 11 -2 -20 -17 -20 -20 -20 -20 -20 -13 -3
-20 -20 -20 -20 -20 -20 6 11 14 10 10 5 7 11 31 28 38 16 35 14 27 -4 -7 8 -12 -14 16 28 14 26 13 14 8 3 10 13 -20 -20 -20 -20 -13 -3 -20
-20 -20 -20 -20 -17 -14 -15 9 11 20 12 12 14 12 3 36 30 24 37 28 22 16 5 6 3 18 7 9 19 24 32 24 8 13 23 10 -16 -20 -20 -20 -20 -20 -20
-20 -20 -20 -20 -12 -20 -20 -20 2 13 21 14 25 9 10 23 39 23 30 26 14 -11 3 18 11 6 10 21 35 25 22 17 21 19 5 -2 -8 -20 -20 -20 -20 -20 -20
4 -14 -20 -20 -20 -20 -20 -20 -20 -17 14 20 26 23 7 21 32 29 25 37 27 20 11 19 -1 1 25 33 34 11 21 -3 17 9 -0 -1 -14 -20 -20 -20 -20 -20 -20
-1 -20 -20 -20 -20 -20 -20 -4 11 1 -3 16 26 19 12 25 26 40 36 32 30 19 34 15 -0 18 33 35 25 24 2 -3 -2 10 14 13 9 2 -20 -20 -20 -20 -20
-20 -20 -6 -18 -20 -20 -6 -6 22 39 33 30 31 23 29 30 29 30 37 40 20 35 17 13 19 34 31 33 24 -10 -4 -5 -6 13 9 11 10 -1 -4 -13 -20 -20 -20
-9 -5 -1 -20 7 23 14 29 31 20 20 34 34 33 31 36 38 40 42 33 29 22 39 37 35 30 35 19 5 11 10 -1 -3 -5 11 2 -3 -12 -20 -20 -20 -20 -20
-8 12 -2 28 27 21 31 33 34 26 31 19 32 30 35 40 36 39 38 35 25 25 23 34 22 31 24 17 30 14 -8 -7 -19 1 -2 -7 -19 -20 -20 -20 -20 -20 -20
15 26 26 29 21 19 29 24 29 29 28 33 30 34 39 37 34 40 34 31 36 24 35 23 31 20 26 7 1 1 -18 -20 -1 -6 -9 -5 -11 -20 -20 -20 -20 -20 -20
19 22 16 23 20 24 21 24 31 26 27 27 33 32 32 35 32 37 37 29 28 26 30 35 30 28 6 -0 -3 -8 2 -19 -20 -19 -13 -10 -20 -20 -20 -20 -20 -20 -20
19 13 15 22 13 10 25 22 21 26 29 30 29 30 35 31 35 34 30 32 35 36 34 34 28 22 -6 -20 -20 -20 -14 -13 -4 -20 -20 -20 -20 -20 -20 -20 -20 -20 -20
15 7 -13 19 24 14 23 16 20 22 23 13 28 27 31 30 28 30 27 26 22 28 34 32 21 -1 -19 -19 -4 -7 6 -2 -20 -20 -20 -20 -20 -20 -20 -20 -20 -20 -20

GFSMA_prec_radar_204.txt.gz
Reflectivity
-20 -20 -20 -20 -20 -20 -20 -20 -20 -20 -20 -20 -20 -20 -20 -20 -20 -20 -20 -20 -20 -20 -20 -20 -18 4 -17 8 17 17 7 -20 -20 -20 -20 -17 12 16 4 0 10 13 15
-20 -20 -20 -20 -20 8 -20 -20 -20 -20 -20 -20 -20 -20 -20 -20 -20 -20 -20 -20 -20 -20 -20 -20 -20 -8 3 8 13 5 -1 -8 0 1 -20 15 -20 9 14 15 14 16 16
-20 4 -13 -20 -20 -20 -20 -20 -20 -20 -20 -20 -20 -20 -20 -20 -20 -20 -20 -20 -20 -20 -20 -20 1 14 15 -3 12 6 11 18 12 -2 14 12 15 17 16 15 13 15 17
-20 -9 -19 -20 -20 -20 -20 -20 -20 -20 -20 -20 -20 -20 -20 -20 -20 -20 -20 -20 -20 -20 -20 -20 5 5 15 14 13 -2 -5 13 18 19 16 16 15 16 15 16 16 11 11
-7 -4 5 0 -14 -15 -19 -20 -20 -20 -20 -5 -20 -20 -20 -20 -20 -20 -20 -20 -20 -20 -20 -20 -19 5 13 11 11 12 7 -20 14 18 16 16 17 12 8 11 14 15 15
0 5 4 9 13 13 2 -16 -20 -16 9 -20 -20 -11 -20 -20 -20 -20 -20 -20 -20 -20 -20 -20 -19 -20 1 10 13 12 12 7 -2 9 13 16 16 15 14 16 15 15 15
8 16 5 4 3 9 17 -0 -18 17 2 8 21 22 15 -16 -20 -1 4 -11 -20 -20 -20 -20 -20 -20 -20 5 6 12 10 12 8 8 11 12 15 13 15 16 16 15 16
-20 -20 -20 -20 -20 -20 -11 9 14 24 15 -6 11 5 21 15 30 14 24 12 -15 -19 -13 -7 -20 -20 -20 -20 -2 9 15 16 10 11 9 14 14 14 15 -2 -18 15 10
-20 -20 -20 -20 -20 -20 -20 -20 -20 -8 3 10 22 5 30 25 12 27 32 36 12 16 5 19 -20 -20 -20 -20 -20 -7 9 13 7 5 23 8 11 12 -5 -20 8 -20 -20
-20 -20 -20 -20 -20 -20 -20 -20 -20 -20 -13 9 14 5 27 14 24 18 27 29 35 21 16 22 27 5 8 -20 -20 -20 -15 -17 9 4 -12 6 15 2 10 9 -15 -20 -20
-20 -20 -20 -20 -20 -20 -20 -20 -20 -20 -20 -0 1 2 16 22 32 28 31 17 32 18 5 32 24 -17 12 10 2 -19 -20 -20 3 -7 -15 -1 14 11 14 11 -20 -20 -20
-20 -20 -20 -20 -20 -20 -20 -20 -20 -20 -20 -20 -20 3 8 8 -3 15 24 21 25 23 37 38 37 33 32 22 13 6 -14 -19 -20 5 -4 -20 -6 3 8 -16 -18 -19 -20
-20 -20 -20 -20 -20 -20 -20 -20 -20 -8 -20 -20 -11 11 11 17 12 23 17 -0 22 29 26 34 27 32 35 35 33 4 28 5 -20 4 -16 -20 -17 3 -11 14 14 -20 -20
-20 -20 -20 -20 -20 -20 -20 -20 4 9 -20 -12 3 6 10 5 14 20 24 28 21 32 11 7 25 29 26 37 31 23 10 10 6 -20 7 -5 0 1 -6 -17 13 -12 -20
-20 -20 -20 -20 -20 -20 -17 4 -20 -20 -20 -20 -20 -20 -7 0 15 16 22 10 26 33 27 16 21 27 33 40 40 20 18 15 10 0 7 20 -9 -19 -20 -20 -1 -19 -20
-20 -20 -20 -20 -1 8 11 -20 -20 -20 -16 -9 -6 8 11 12 -18 -1 22 15 19 31 27 33 11 -3 27 35 39 33 36 16 4 -7 16 7 2 -3 -19 -5 -19 -20 -20
-20 -20 -20 -20 -20 -11 2 1 12 -20 -0 -7 -20 3 6 11 11 15 21 19 18 10 27 34 29 6 28 33 34 33 30 35 18 18 16 15 22 6 -14 -20 -20 -20 -20
-20 -20 4 9 -15 -19 -19 -14 -17 1 -20 4 6 4 10 21 16 15 18 27 15 -17 16 36 1 32 6 14 31 33 38 30 21 14 19 25 9 4 -15 -10 -19 -20 -20
-9 4 14 -6 -16 -20 -20 -10 3 0 2 3 -6 1 4 9 7 12 -1 22 29 18 13 34 25 -4 12 31 33 38 35 22 21 24 18 18 18 9 4 -12 -19 -20 -20
-20 -20 -20 -20 -20 -16 5 -3 -10 -4 2 5 4 3 -5 -0 -10 8 9 16 23 21 -0 13 21 -4 15 32 31 32 27 35 32 19 26 28 18 7 -20 -18 -14 -20 -20
-20 -20 -20 -20 3 -20 -17 -7 -1 0 -2 -0 2 7 10 18 24 21 5 22 26 34 11 8 6 14 18 24 30 36 20 28 28 26 24 17 12 1 -8 11 -14 -20 -20
-20 -20 -20 -20 -13 -10 14 0 6 6 9 15 23 15 22 24 25 27 11 11 26 11 -0 16 10 -5 4 25 34 24 20 21 22 33 22 22 13 13 14 3 -13 -20 -20
-19 -12 -11 -8 -8 17 18 3 0 2 2 27 23 26 28 32 32 34 32 24 28 19 -5 2 18 20 26 30 28 22 18 18 21 26 27 19 17 14 -1 -19 2 -20 -20
-14 -5 -7 -18 -12 -19 6 -6 6 -10 12 21 23 8 26 28 16 8 22 34 32 19 16 27 37 38 34 34 32 29 24 25 26 24 27 20 14 -5 -14 -5 3 -19 -20
3 -20 -20 -20 -20 8 16 12 -1 -19 -2 14 8 26 24 22 23 20 26 27 31 34 37 37 35 35 35 33 37 31 28 25 22 23 20 -0 -1 0 -1 -3 -14 -20 -20
-20 -20 -20 -20 4 -20 1 -9 -18 0 8 9 24 30 32 30 21 19 18 11 27 34 36 35 36 36 37 36 29 20 17 12 13 16 2 -6 -4 -14 -3 -3 -7 -20 -20

GFSMA_prec_radar_210.txt.gz
Reflectivity
8 23 22 18 7 6 5 10 -9 -12 -15 -20 -20 -20 -20 -20 -20 -20 -20 -20 -20 -20 -20 -20 -7 -20 7 -5 3 2 3 -20 -20 -10 -14 -20 -2 11 5 -20 -20 -20 -19
-3 -9 8 19 16 22 8 9 12 10 7 6 -19 -20 -20 -20 -20 -20 -20 -20 -20 -20 -20 -17 -18 -17 1 -15 9 -19 -18 -20 -19 -4 -18 -20 -7 -19 10 -4 11 9 -13
-20 -5 1 16 -3 -19 -20 14 12 9 0 -19 -20 -20 -20 -20 -20 -20 -20 -20 -20 -20 -20 -20 -20 -20 -20 -4 -16 -5 12 2 -13 6 -16 -18 -9 -20 -7 6 0 1 -1
10 14 14 12 21 4 -5 -20 -15 -14 -19 -16 -15 9 -20 -20 -20 -20 -20 -20 -20 -20 -14 -20 -20 -20 -20 -20 -16 -14 -20 -1 8 9 11 -2 3 -4 -20 -4 5 1 -20
4 7 4 -4 3 0 8 4 14 -1 -1 1 -20 -18 -14 -20 -6 -20 -20 -20 -20 -20 -20 -20 -20 -20 -20 -20 -20 -20 -20 -20 3 15 15 4 2 1 0 -4 1 1 -12
13 1 23 17 14 10 9 7 0 3 9 13 7 -20 -20 -20 -20 -19 4 -20 -20 -20 -20 -20 -6 -19 -20 -20 -7 -13 -20 0 -1 3 16 17 12 4 9 -1 0 -1 10
2 14 7 -2 -20 -20 -20 -20 -20 -20 -20 -1 -1 -20 -20 -20 -20 -20 -20 -20 -19 9 3 -20 -19 0 -14 2 18 -0 -4 2 8 1 5 15 14 13 14 1 11 1 -1
-20 -20 -20 -20 -20 -20 -20 -20 -20 -20 -20 -20 -19 -20 -20 -20 -20 -20 -20 -20 -20 -20 -20 -20 -20 -1 -16 -16 15 3 8 15 15 8 8 10 9 12 15 8 -2 -2 -2
-20 -20 -20 -20 -20 -20 -20 -20 -20 -20 -20 -20 -20 -20 -20 -20 -20 -12 -14 -20 -6 5 -0 -1 8 -20 -1 3 19 19 17 37 21 15 15 13 9 5 14 19 9 10 7
-20 -20 -20 -20 -20 -20 -20 -20 -20 -20 -20 -20 -20 -20 -20 -20 -20 -20 -20 -6 -0 4 9 12 12 14 8 10 -20 -15 29 35 20 24 21 17 13 12 10 17 8 10 1
-20 -20 -20 -20 -20 -20 -20 -20 -20 -20 -20 -20 -20 -20 -20 7 4 10 -7 -20 7 -2 -19 -20 9 12 7 1 -1 5 -9 19 6 36 33 21 16 14 12 9 11 13 1
-20 -20 -20 -20 -20 -20 -20 -20 -20 -20 -20 -20 -20 -20 -20 -20 -20 -11 16 -19 -3 -6 14 4 3 6 12 26 26 28 26 28 26 33 31 34 20 15 17 10 4 9 -1
-20 -20 -20 -20 -20 -20 -20 -20 -20 -20 -20 -20 -20 -20 -20 -8 -15 -15 13 -18 1 -20 13 -7 -1 7 -14 12 30 34 32 33 33 26 24 26 34 27 30 14 8 9 4
-20 -20 -20 -20 -20 -20 -20 -20 -20 -20 -20 -9 -6 4 9 -9 1 16 11 16 16 5 0 -20 -19 -20 -20 1 7 -5 29 38 39 34 29 27 21 30 26 15 16 10 7
-20 -20 -20 -20 -20 -20 -20 -20 -20 -20 -6 5 10 15 15 13 13 15 19 19 22 21 2 7 14 11 -1 -4 5 15 18 24 38 34 30 29 32 24 27 28 24 14 4
-20 -20 -20 -20 -20 -20 -11 -0 6 -6 10 10 8 -20 -12 -20 -20 8 18 19 22 20 16 -5 18 -7 -6 -20 -20 -20 3 30 20 38 34 30 34 28 30 30 33 34 18
-20 -20 -20 -20 -20 -20 -20 -17 -4 1 5 11 14 14 13 12 9 0 -2 11 20 13 13 -12 9 17 5 -6 -20 -20 4 24 32 43 40 28 35 32 26 23 27 34 25
-20 -20 -20 -20 -20 -20 -12 0 6 2 2 1 -9 10 4 12 12 9 12 9 6 9 11 5 1 8 14 -20 -20 -20 -14 24 33 29 40 37 35 35 33 24 27 34 28
-20 -20 -17 -19 -3 -4 -3 2 5 7 5 6 6 3 8 6 3 3 2 2 5 13 33 33 35 27 -10 -9 -13 31 6 13 29 28 36 37 33 33 35 28 23 29 33
-13 -20 -14 -13 2 -2 -14 -18 -11 5 4 0 4 -4 3 -4 6 7 9 3 6 20 21 27 32 37 24 -12 -14 3 25 23 30 28 37 38 35 36 34 28 16 25 36
-20 -7 -17 -1 -3 -4 -1 -14 2 -9 -14 4 -2 -16 2 5 -1 -11 21 19 24 26 22 17 25 38 25 10 11 24 1 22 28 33 34 33 34 33 34 25 29 28 28
-20 -3 -17 1 -17 -4 5 3 6 6 -10 -20 -20 -20 -20 11 13 13 -3 17 18 22 23 15 26 30 21 3 -4 14 19 23 20 36 34 34 33 35 25 31 25 22 33
-1 -1 -20 -9 -13 1 10 12 -4 1 -18 -5 -20 -16 -8 -13 15 13 26 19 18 22 22 20 27 12 4 -2 -10 2 4 1 15 27 30 26 35 34 31 33 21 28 29
-4 0 -1 1 -3 2 11 -16 -9 3 -20 -20 -11 -2 12 16 10 19 16 4 -7 -4 14 24 15 12 -12 -10 -8 -16 -3 18 30 33 35 25 34 23 31 27 27 29 32
-3 -3 -3 -15 -5 -1 -14 -14 -10 -17 -20 -20 -20 3 -0 -20 17 -18 2 9 7 25 32 27 13 30 20 11 8 7 33 26 20 23 35 24 20 22 23 23 30 30 26
-6 -19 -20 -20 7 -4 1 -4 -20 -1 -20 -19 -20 -20 -19 3 14 -20 -19 15 1 20 27 11 14 20 20 20 23 8 3 10 21 27 32 23 15 17 23 26 20 23 25